Flag for U.S.A. Weather past 2 weeks in Baton Rouge, Louisiana, U.S.A.

Now
97 °F

Scattered clouds.


Feels Like: 101 °F
Forecast: 74 / 95 °F
Wind: 9 mph from Southeast

Location: Baton Rouge Metropolitan - Ryan Field

Current Time: Aug 3, 2015 at 2:14:27 PM

Latest Report: Aug 3, 2015 at 1:53 PM


Visibility: 10 mi

Pressure: 29.90 "Hg

Humidity: 37%

Dew point: 67 °F

Location of Baton RougeLocation

Historic Weather in Baton Rouge — Graph

°F

Baton Rouge temperature yesterday

Maximum temperature yesterday: 97 °F (at 3:53 PM)
Minimum temperature yesterday: 70 °F (at 5:53 AM)
Average temperature yesterday: 83 °F

Past Weeks' High & Low Weather Summary

 TemperatureHumidityPressure
High99 °F (Jul 29, 1:53 PM)94% (Jul 26, 6:53 AM)30.08 "Hg (Jul 26, 6:53 AM)
Low70 °F (Aug 2, 5:53 AM)30% (Aug 2, 3:53 PM)29.84 "Hg (Aug 2, 6:53 PM)
Average85 °F69%29.95 "Hg
* Reported Jul 19 12:53 PM — Aug 3 12:53 PM, Baton Rouge, Weather by CustomWeather, © 2015

Note: Actual official high and low records may vary slightly from our data, if they occured in-between our weather recording intervals... More about our weather records

Advertising

Baton Rouge weather history for previous 24 hours

 ConditionsComfort  
Time TempWeatherWind HumidityBarometerVisibility
12:53 PM
Mon, Aug 3
96 °FSunny.12 mph40%29.91 "Hg10 mi
11:53 AM94 °FSunny.7 mph43%29.92 "Hg10 mi
10:53 AM91 °FSunny.No wind52%29.92 "Hg10 mi
9:53 AM88 °FSunny.No wind59%29.90 "Hg10 mi
8:53 AM85 °FSunny.No wind65%29.91 "Hg10 mi
7:53 AM80 °FSunny.5 mph79%29.90 "Hg8 mi
6:53 AM75 °FClear.No wind90%29.89 "Hg8 mi
5:53 AM75 °FClear.No wind90%29.88 "Hg10 mi
4:53 AM76 °FClear.No wind88%29.87 "Hg10 mi
3:53 AM77 °FClear.3 mph85%29.87 "Hg10 mi
2:53 AM78 °FClear.3 mph79%29.87 "Hg10 mi
1:53 AM78 °FClear.7 mph79%29.88 "Hg10 mi
12:53 AM76 °FClear.No wind82%29.87 "Hg10 mi
11:53 PM
Sun, Aug 2
77 °FClear.No wind82%29.87 "Hg10 mi
10:53 PM79 °FClear.No wind77%29.87 "Hg10 mi
9:53 PM80 °FClear.No wind74%29.86 "Hg10 mi
8:53 PM83 °FSunny.No wind65%29.85 "Hg10 mi
7:53 PM87 °FSunny.No wind53%29.85 "Hg10 mi
6:53 PM93 °FSunny.5 mph38%29.84 "Hg10 mi
5:53 PM95 °FSunny.5 mph35%29.85 "Hg10 mi
4:53 PM96 °FSunny.6 mph34%29.85 "Hg10 mi
3:53 PM97 °FSunny.7 mph30%29.86 "Hg10 mi
2:53 PM96 °FPassing clouds.6 mph32%29.87 "Hg10 mi
Weather by CustomWeather, © 2015

See weather overviewHow to use our weather pages